sat.trackr.live / text

‹ back to catalog

STARLINK-31662

NORAD 59584 · 2024-076W

PAYLOAD ACTIVE UNKNOWN

§ Identity

Operator
Country
US
Launch date
2024-04-23
Launch site
AFETR
Launch vehicle
Mass (kg)
RCS (m²)

Purposes: comms

External: N2YO · Heavens-Above · Gunter

§ Orbital elements

Epoch: 2026-09-21T22:18:18.859680Z

Period
94.27 min
Inclination
43.0029°
Eccentricity
0.0000810
Mean motion
15.27575587 rev/d
Perigee alt
482.5 km
Apogee alt
483.6 km
Semi-major
6,861.2 km
B*
8.9908e-7
RAAN
340.8536°
Arg perigee
271.1562°
Mean anomaly
88.9197°
Rev number
13,651

§ Raw data

STARLINK-316621 59584U 24076W   26264.92938495 -.00000237  00000+0  89908-6 0  99912 59584  43.0029 340.8536 0000810 271.1562  88.9197 15.27575587136513

JSON: /api/v1/satellites/59584 · /tle

For live sub-satellite position, see the globe view (requires WebGL).

§ Visibility from observer

Set your observer location to see the next 7 days of passes ≥ 10°. The values pass through the URL so the page stays shareable.

No JS? Fill the form by hand. The geolocation button needs JavaScript.